#timestamp,LO_Frequency,Hit,StdDev 
1557356415.3,286046995.3,N
1557356435.2,286046999.0,N
1557356455.0,286046996.5,N
1557356455.9,286046996.5,N
1557356475.7,286047001.2,N
1557356495.6,286047000.8,N
1557356515.4,286046999.5,N
1557356535.3,286046996.9,N
1557356555.1,286046999.2,N
1557356556.0,286046999.2,N
1557356575.8,286046995.1,N
1557356595.7,286046994.4,N
1557356615.5,286046995.2,N
1557356635.3,286047001.2,N
1557356655.2,286047001.2,N
1557356675.0,286046998.7,N
1557356675.9,286046998.7,N
1557356695.8,286046999.4,N
1557356715.6,286046999.4,N
1557356735.4,286046998.9,N
1557356755.3,286047000.7,N
1557356775.1,286047001.2,N
1557356795.8,286047000.1,N
1557356815.7,286047004.2,N
1557356835.5,286047002.0,N
1557356855.4,286047000.7,N
1557356875.2,286046998.5,N
1557356895.0,286046999.0,N
1557356895.9,286046999.0,N
1557356915.8,286047000.9,N
1557356935.6,286046999.6,N
1557356955.4,286046998.2,N
1557356975.3,286047000.5,N
1557356995.1,286047000.2,N
1557357015.9,286047001.0,N
1557357035.7,286046998.5,N
1557357055.5,286047002.7,N
1557357075.4,286047000.7,N
1557357095.2,286046998.8,N
1557357115.0,286046998.6,N
1557357115.9,286046998.6,N
1557357135.8,286047002.2,N
1557357155.6,286047001.2,N
1557357175.5,286047000.8,N
1557357195.3,286046998.5,N
1557357215.1,286047002.2,N
1557357235.9,286046998.3,N
1557357255.7,286047001.0,N
1557357275.6,286046998.2,N
1557357295.4,286046998.1,N
1557357315.2,286046999.2,N
1557357335.1,286046995.5,N
1557357336.0,286046995.5,N
1557357355.8,286046993.4,Y
1557357375.6,286046995.9,P
1557357395.5,286046993.9,P
1557357415.3,286046993.7,N
1557357435.2,286046997.4,N
1557357455.9,286046998.3,N
1557357475.7,286046999.4,N
1557357495.6,286046999.0,N
1557357515.4,286046998.9,N
1557357535.7,286047000.8,N
1557357555.5,286046999.7,N
1557357575.3,286047002.8,N
1557357595.2,286046999.8,N
1557357615.9,286046998.1,N
1557357635.7,286046998.8,N
1557357655.6,286046997.0,N
1557357675.4,286046999.5,N
1557357695.2,286046998.2,N
1557357715.1,286046999.7,N
1557357716.0,286046999.7,N
1557357735.8,286047004.3,N
1557357755.7,286047000.6,N
1557357775.5,286047000.9,N
1557357795.3,286046998.5,N
1557357815.2,286046999.6,N
1557357835.0,286046998.7,N
1557357835.9,286046998.7,N
1557357855.8,286046998.7,N
1557357875.6,286047001.9,N
1557357895.4,286047002.1,N
1557357915.3,286047001.3,N
1557357935.1,286047002.5,N
1557357936.0,286047002.5,N
1557357955.8,286046999.8,N
1557357975.7,286047000.3,N
1557357995.5,286047002.3,N
1557358015.3,286047003.5,N
1557358035.2,286047003.4,N
1557358055.0,286047004.1,N
1557358055.9,286047004.1,N
1557358075.8,286047002.2,N
1557358095.6,286046999.7,N
1557358115.4,286047001.7,N
1557358135.3,286047002.7,N
1557358155.1,286047003.9,N
1557358175.9,286047003.7,N
1557358195.7,286047003.0,N
1557358215.5,286047003.2,N
1557358235.4,286047001.7,N
1557358255.2,286047005.8,Y
1557358275.1,286047001.8,P
1557358276.0,286047001.8,P
1557358295.8,286047005.6,P
1557358315.6,286047003.8,N
1557358335.5,286047001.6,N
1557358355.3,286047004.0,N
1557358375.1,286047003.6,N
1557358395.9,286047005.1,Y
1557358415.7,286047002.0,P
1557358435.6,286047001.9,P
1557358455.4,286047003.8,P
1557358475.2,286047003.1,Y
1557358495.1,286047001.1,P
1557358496.0,286047001.1,N
1557358515.8,286046999.9,N
1557358535.6,286046999.8,N
1557358555.5,286046998.4,N
1557358575.3,286046999.6,N
1557358595.2,286046997.0,N
1557358615.0,286046997.7,N
1557358615.9,286046997.7,N
1557358635.7,286046995.7,N
1557358655.6,286046993.5,Y
1557358675.4,286046995.3,P
1557358695.3,286046995.1,N
1557358715.1,286046993.5,P
1557358716.0,286046993.5,Y
1557358735.8,286046998.3,P
1557358755.7,286046999.2,N
1557358775.5,286046998.2,N
1557358795.4,286046998.4,N
1557358815.2,286046999.1,N
1557358835.0,286046996.8,N
1557358835.9,286046996.8,N
1557358855.8,286046999.4,N
1557358875.6,286046997.8,N
1557358895.4,286046997.8,N
1557358915.3,286046997.9,N
1557358935.1,286046997.4,N
1557358955.9,286046997.6,N
1557358975.7,286046994.9,Y
1557358995.5,286046999.5,P
1557359015.4,286046998.0,N
1557359035.2,286046997.3,P
1557359055.0,286046994.9,Y
1557359055.9,286046994.9,P
1557359075.8,286047001.1,N
1557359095.6,286047001.0,N
1557359115.5,286046999.9,N
1557359135.3,286047000.6,N
1557359155.1,286046998.5,N
1557359175.9,286046998.5,N
1557359195.7,286046998.3,N
1557359215.5,286047000.7,N
1557359235.4,286047002.0,N
1557359255.2,286047002.7,N
1557359275.1,286046998.2,N
1557359276.0,286046998.2,N
1557359295.8,286046999.7,N
1557359315.6,286046999.3,N
1557359335.5,286046998.4,N
1557359355.3,286046999.6,N
1557359375.1,286046997.2,N
1557359395.9,286046994.9,N
1557359415.7,286046998.4,N
1557359435.6,286047000.2,N
1557359455.4,286046998.6,N
1557359475.2,286046999.8,N
1557359495.1,286046998.8,N
1557359496.0,286046998.8,N
1557359515.8,286046998.9,N
1557359535.7,286046999.5,N
1557359555.5,286047002.4,N
1557359575.3,286047000.0,N
1557359595.2,286047000.4,N
1557359615.9,286046998.6,N
1557359635.7,286046998.8,N
1557359655.6,286047000.5,N
1557359675.4,286047002.2,N
1557359695.2,286046999.8,N
1557359715.1,286046999.8,N
1557359716.0,286046999.8,N
1557359735.8,286047000.2,N
1557359755.7,286047002.5,N
1557359775.5,286046999.7,N
1557359795.3,286046998.4,N
1557359815.2,286046998.7,N
1557359835.0,286046998.5,N
1557359835.9,286046998.5,N
1557359855.8,286047000.5,N
1557359875.6,286046997.0,N
1557359895.4,286046999.4,N
1557359915.3,286046997.5,N
1557359935.1,286046996.6,N
1557359955.9,286046999.1,N
1557359975.7,286047000.0,N
1557359995.5,286047000.4,N
